Time,TemperatureF,DewpointF,PressureIn,WindDirection,WindDirectionDegrees,WindSpeedMPH,WindSpeedGustMPH,Humidity,HourlyPrecipIn,Conditions,Clouds,dailyrainin,SoftwareType,DateUTC
2015-08-29 00:04:00,80.0,76.0,29.87,NE,38,3.0,-999.0,87,-99.99,,,-99.99,,2015-08-29 05:04:00,
2015-08-29 00:13:00,80.0,76.0,29.86,NE,38,2.0,-999.0,87,-99.99,,,-99.99,,2015-08-29 05:13:00,
2015-08-29 00:24:00,79.0,75.0,29.86,NE,38,2.0,-999.0,87,-99.99,,,-99.99,,2015-08-29 05:24:00,
2015-08-29 00:34:00,79.0,75.0,29.86,NE,38,3.0,-999.0,88,-99.99,,,-99.99,,2015-08-29 05:34:00,
2015-08-29 00:44:00,79.0,75.0,29.86,NE,36,3.0,-999.0,88,-99.99,,,-99.99,,2015-08-29 05:44:00,
2015-08-29 00:53:00,79.0,75.0,29.85,NE,36,3.0,-999.0,88,-99.99,,,-99.99,,2015-08-29 05:53:00,
2015-08-29 01:04:00,79.0,75.0,29.85,NE,47,3.0,-999.0,88,-99.99,,,-99.99,,2015-08-29 06:04:00,
2015-08-29 01:13:00,79.0,75.0,29.85,NE,46,2.0,-999.0,88,-99.99,,,-99.99,,2015-08-29 06:13:00,
2015-08-29 01:24:00,79.0,75.0,29.85,NE,46,2.0,-999.0,88,-99.99,,,-99.99,,2015-08-29 06:24:00,
2015-08-29 01:34:00,79.0,75.0,29.85,NE,46,2.0,-999.0,88,-99.99,,,-99.99,,2015-08-29 06:34:00,
2015-08-29 01:44:00,79.0,75.0,29.85,NE,46,2.0,-999.0,88,-99.99,,,-99.99,,2015-08-29 06:44:00,
2015-08-29 01:53:00,79.0,75.0,29.85,NE,46,3.0,-999.0,88,-99.99,,,-99.99,,2015-08-29 06:53:00,
2015-08-29 02:03:00,79.0,75.0,29.84,NE,45,2.0,-999.0,88,-99.99,,,-99.99,,2015-08-29 07:03:00,
2015-08-29 02:13:00,79.0,75.0,29.84,NE,45,1.0,-999.0,87,-99.99,,,-99.99,,2015-08-29 07:13:00,
2015-08-29 02:23:00,79.0,75.0,29.84,NE,45,3.0,-999.0,87,-99.99,,,-99.99,,2015-08-29 07:23:00,
2015-08-29 02:34:00,79.0,75.0,29.84,NE,45,2.0,-999.0,88,-99.99,,,-99.99,,2015-08-29 07:34:00,
2015-08-29 02:43:00,79.0,75.0,29.84,NE,44,3.0,-999.0,88,-99.99,,,-99.99,,2015-08-29 07:43:00,
2015-08-29 03:03:00,79.0,75.0,29.83,NE,44,2.0,-999.0,87,-99.99,,,-99.99,,2015-08-29 08:03:00,
2015-08-29 03:13:00,79.0,75.0,29.84,NE,44,2.0,-999.0,87,-99.99,,,-99.99,,2015-08-29 08:13:00,
2015-08-29 03:23:00,79.0,75.0,29.84,NE,44,2.0,-999.0,87,-99.99,,,-99.99,,2015-08-29 08:23:00,
2015-08-29 03:33:00,79.0,75.0,29.83,NE,44,0.0,-999.0,87,-99.99,,,-99.99,,2015-08-29 08:33:00,
2015-08-29 03:44:00,79.0,75.0,29.83,NE,44,1.0,-999.0,87,-99.99,,,-99.99,,2015-08-29 08:44:00,
2015-08-29 03:54:00,79.0,75.0,29.83,NE,44,2.0,-999.0,87,-99.99,,,-99.99,,2015-08-29 08:54:00,
2015-08-29 04:04:00,79.0,75.0,29.84,NE,44,2.0,-999.0,87,-99.99,,,-99.99,,2015-08-29 09:04:00,
2015-08-29 04:23:00,79.0,75.0,29.85,NE,44,2.0,-999.0,87,-99.99,,,-99.99,,2015-08-29 09:23:00,
2015-08-29 04:33:00,79.0,75.0,29.84,NE,44,1.0,-999.0,87,-99.99,,,-99.99,,2015-08-29 09:33:00,
2015-08-29 04:44:00,79.0,75.0,29.84,NE,44,2.0,-999.0,87,-99.99,,,-99.99,,2015-08-29 09:44:00,
2015-08-29 04:54:00,79.0,75.0,29.84,NE,44,2.0,-999.0,88,-99.99,,,-99.99,,2015-08-29 09:54:00,
2015-08-29 05:04:00,79.0,75.0,29.84,NE,44,2.0,-999.0,87,-99.99,,,-99.99,,2015-08-29 10:04:00,
2015-08-29 05:23:00,78.0,74.0,29.85,NE,43,3.0,-999.0,88,-99.99,,,-99.99,,2015-08-29 10:23:00,
2015-08-29 05:33:00,78.0,74.0,29.85,NE,43,3.0,-999.0,88,-99.99,,,-99.99,,2015-08-29 10:33:00,
2015-08-29 05:44:00,78.0,74.0,29.85,NE,43,2.0,-999.0,88,-99.99,,,-99.99,,2015-08-29 10:44:00,
2015-08-29 05:54:00,78.0,74.0,29.85,NE,43,1.0,-999.0,88,-99.99,,,-99.99,,2015-08-29 10:54:00,
2015-08-29 06:04:00,78.0,74.0,29.85,NE,43,3.0,-999.0,88,-99.99,,,-99.99,,2015-08-29 11:04:00,
2015-08-29 06:13:00,77.0,73.0,29.85,NE,43,3.0,-999.0,88,-99.99,,,-99.99,,2015-08-29 11:13:00,
2015-08-29 06:24:00,77.0,73.0,29.85,NE,43,3.0,-999.0,88,-99.99,,,-99.99,,2015-08-29 11:24:00,
2015-08-29 06:34:00,77.0,73.0,29.85,NE,43,3.0,-999.0,88,-99.99,,,-99.99,,2015-08-29 11:34:00,
2015-08-29 06:44:00,77.0,73.0,29.85,NE,43,3.0,-999.0,88,-99.99,,,-99.99,,2015-08-29 11:44:00,
2015-08-29 06:54:00,78.0,74.0,29.86,NE,43,3.0,-999.0,88,-99.99,,,-99.99,,2015-08-29 11:54:00,
2015-08-29 07:03:00,78.0,74.0,29.86,NE,43,2.0,-999.0,87,-99.99,,,-99.99,,2015-08-29 12:03:00,
2015-08-29 07:13:00,78.0,74.0,29.87,ENE,69,3.0,-999.0,88,-99.99,,,-99.99,,2015-08-29 12:13:00,
2015-08-29 07:23:00,79.0,75.0,29.87,SE,127,6.0,-999.0,88,-99.99,,,-99.99,,2015-08-29 12:23:00,
2015-08-29 07:34:00,80.0,76.0,29.87,SSW,202,5.0,-999.0,87,-99.99,,,-99.99,,2015-08-29 12:34:00,
2015-08-29 07:44:00,81.0,76.0,29.87,SSE,164,4.0,-999.0,86,-99.99,,,-99.99,,2015-08-29 12:44:00,
2015-08-29 07:54:00,81.0,76.0,29.88,ENE,78,2.0,-999.0,85,-99.99,,,-99.99,,2015-08-29 12:54:00,
2015-08-29 08:13:00,82.0,76.0,29.89,ENE,73,7.0,-999.0,83,-99.99,,,-99.99,,2015-08-29 13:13:00,
2015-08-29 08:24:00,81.0,76.0,29.88,NE,55,9.0,-999.0,84,-99.99,,,-99.99,,2015-08-29 13:24:00,
2015-08-29 08:34:00,81.0,76.0,29.90,ESE,122,7.0,-999.0,84,-99.99,,,-99.99,,2015-08-29 13:34:00,
2015-08-29 08:44:00,81.0,75.0,29.90,SSE,168,8.0,-999.0,82,-99.99,,,-99.99,,2015-08-29 13:44:00,
2015-08-29 08:53:00,82.0,76.0,29.90,SSE,149,6.0,-999.0,81,-99.99,,,-99.99,,2015-08-29 13:53:00,
2015-08-29 09:03:00,82.0,75.0,29.91,SSE,160,4.0,-999.0,79,-99.99,,,-99.99,,2015-08-29 14:03:00,
2015-08-29 09:13:00,83.0,76.0,29.91,SE,144,6.0,-999.0,79,-99.99,,,-99.99,,2015-08-29 14:13:00,
2015-08-29 09:23:00,83.0,75.0,29.91,East,88,6.0,-999.0,78,-99.99,,,-99.99,,2015-08-29 14:23:00,
2015-08-29 09:33:00,84.0,75.0,29.91,ESE,116,6.0,-999.0,75,-99.99,,,-99.99,,2015-08-29 14:33:00,
2015-08-29 09:44:00,85.0,75.0,29.92,ESE,108,5.0,-999.0,71,-99.99,,,-99.99,,2015-08-29 14:44:00,
2015-08-29 09:53:00,86.0,75.0,29.92,SE,136,5.0,-999.0,69,-99.99,,,-99.99,,2015-08-29 14:53:00,